Weather History for KSFQ - April, 2014

Change the Weather History Date:

Monday, April 7, 2014

  Actual Average Record
Temperature  
Mean Temperature 58 °F -  
Max Temperature 70 °F 65 °F 86 °F (1954)
Min Temperature 46 °F 42 °F 29 °F (1982)
Degree Days  
Heating Degree Days 7    
Growing Degree Days 8 (Base 50)    
Moisture  
Dew Point 51 °F    
Average Humidity 83    
Maximum Humidity 99    
Minimum Humidity 45    
Precipitation  
Precipitation 0.93 in - - ()
Sea Level Pressure  
Sea Level Pressure 29.92 in    
Wind  
Wind Speed 6 mph (ESE)    
Max Wind Speed 20 mph    
Max Gust Speed 29 mph    
Visibility 9 miles    
Events Rain , Thunderstorm    
Averages and records for this station are not official NWS values.
T = Trace of Precipitation, MM = Missing Value Source: NWS Daily Summary

Daily Weather History Graph

Daily Weather History Graph

Search for Another Location

Airport or City:

Trip Planner

Search our weather history database for the weather conditions in past years. The results will help you decide how hot, cold, wet, or windy it might be!

Date:

Astronomy

Apr. 07, 2014 Rise Set
Actual Time 6:43 AM EDT 7:33 PM EDT
Civil Twilight 6:17 AM EDT 8:00 PM EDT
Nautical Twilight 5:46 AM EDT 8:31 PM EDT
Astronomical Twilight 5:14 AM EDT 9:03 PM EDT
Moon 12:41 PM EDT (4/7) 2:05 AM EDT (4/7)
Length of Visible Light 13h 42m
Length of Day
12h 50m
First Quarter, 53% of the Moon is Illuminated
Apr 7
First Quarter
Apr 15
Full
Apr 22
Last Quarter
Apr 29
New
May 6
First Quarter

Hourly Weather History & Observations

Time (EDT) Temp. Windchill Dew Point Humidity Pressure Visibility Wind Dir Wind Speed Gust Speed Precip Events Conditions
12:15 AM 46.4 °F 44.3 °F 27.1 °F 47% 30.18 in 10.0 mi ENE 4.6 mph - N/A   Overcast
12:35 AM 46.4 °F 45.2 °F 27.0 °F 47% 30.18 in 10.0 mi ENE 3.5 mph - N/A   Overcast
12:55 AM 46.4 °F - 27.5 °F 48% 30.17 in 10.0 mi Calm Calm - N/A   Overcast
1:15 AM 46.6 °F - 27.3 °F 47% 30.16 in 10.0 mi ENE 3.5 mph - N/A   Overcast
1:35 AM 46.6 °F - 27.7 °F 48% 30.16 in 10.0 mi NE 5.8 mph - N/A   Overcast
1:55 AM 46.9 °F - 26.4 °F 45% 30.14 in 10.0 mi ENE 4.6 mph - N/A   Overcast
2:15 AM 46.6 °F - 27.0 °F 46% 30.13 in 10.0 mi ENE 5.8 mph - N/A   Mostly Cloudy
2:35 AM 46.8 °F - 29.3 °F 51% 30.13 in 10.0 mi ENE 4.6 mph - N/A   Mostly Cloudy
2:55 AM 46.6 °F - 30.9 °F 54% 30.11 in 10.0 mi ENE 4.6 mph - N/A   Mostly Cloudy
3:15 AM 46.4 °F 44.3 °F 32.0 °F 57% 30.11 in 10.0 mi ENE 4.6 mph - N/A   Scattered Clouds
3:35 AM 46.6 °F - 32.9 °F 59% 30.09 in 10.0 mi ENE 5.8 mph - N/A   Mostly Cloudy
3:55 AM 46.4 °F 44.3 °F 33.8 °F 62% 30.08 in 10.0 mi ENE 4.6 mph - N/A   Overcast
4:15 AM 46.9 °F - 35.4 °F 64% 30.08 in 10.0 mi ENE 3.5 mph - N/A   Overcast
4:35 AM 47.3 °F - 36.5 °F 66% 30.06 in 10.0 mi ENE 5.8 mph - N/A   Overcast
4:55 AM 47.5 °F - 37.6 °F 69% 30.05 in 10.0 mi East 5.8 mph - N/A   Overcast
5:15 AM 47.8 °F - 39.2 °F 72% 30.04 in 10.0 mi ENE 4.6 mph - N/A   Overcast
5:35 AM 48.2 °F - 40.8 °F 76% 30.04 in 10.0 mi ENE 4.6 mph - N/A Rain Rain
5:55 AM 47.5 °F - 43.0 °F 84% 30.05 in 10.0 mi ENE 3.5 mph - N/A Rain Light Rain
6:15 AM 47.3 °F - 44.2 °F 89% 30.05 in 10.0 mi ENE 3.5 mph - N/A   Drizzle
6:35 AM 47.7 °F - 45.5 °F 92% 30.04 in 10.0 mi ENE 4.6 mph - 0.01 in Rain Light Rain
6:55 AM 48.2 °F - 46.4 °F 93% 30.05 in 10.0 mi ENE 5.8 mph - 0.02 in Rain Light Rain
7:15 AM 49.1 °F - 47.7 °F 95% 30.05 in 7.0 mi East 5.8 mph - 0.01 in Rain Light Rain
7:35 AM 50.2 °F - 48.7 °F 95% 30.05 in 7.0 mi East 6.9 mph - 0.03 in Rain Light Rain
7:55 AM 50.5 °F - 49.3 °F 95% 30.04 in 5.0 mi East 5.8 mph - 0.05 in Rain Light Rain
8:15 AM 51.4 °F - 50.4 °F 96% 30.03 in 7.0 mi East 8.1 mph - 0.01 in Rain Light Rain
8:35 AM 52.3 °F - 51.3 °F 96% 30.04 in 4.0 mi ENE 4.6 mph - 0.04 in Rain Rain
8:55 AM 52.9 °F - 51.8 °F 96% 30.04 in 3.0 mi NE 3.5 mph - 0.11 in Rain Heavy Rain
9:15 AM 53.6 °F - 52.7 °F 97% 30.02 in 2.5 mi NE 8.1 mph - 0.11 in Rain Heavy Rain
9:35 AM 54.0 °F - 53.2 °F 97% 30.01 in 3.0 mi East 6.9 mph - 0.19 in Rain Rain
9:55 AM 55.4 °F - 54.5 °F 97% 29.99 in 7.0 mi East 9.2 mph - 0.23 in Rain Light Rain
10:15 AM 56.1 °F - 55.0 °F 96% 29.99 in 7.0 mi East 9.2 mph - N/A Rain Light Rain
10:35 AM 56.3 °F - 54.9 °F 95% 29.98 in 7.0 mi East 11.5 mph - 0.03 in Rain Light Rain
10:55 AM 56.3 °F - 55.0 °F 96% 30.00 in 5.0 mi East 4.6 mph 9.2 mph 0.11 in Rain Light Rain
11:15 AM 56.5 °F - 55.4 °F 96% 29.97 in 7.0 mi ESE 5.8 mph - 0.04 in Rain Light Rain
11:55 AM 57.2 °F - 55.9 °F 96% 29.95 in 10.0 mi East 11.5 mph - 0.06 in Rain Light Rain
12:15 PM 57.6 °F - 56.5 °F 96% 29.93 in 10.0 mi East 12.7 mph 18.4 mph 0.01 in Rain Rain
12:35 PM 58.1 °F - 57.0 °F 96% 29.90 in 10.0 mi East 9.2 mph - 0.02 in   Overcast
12:55 PM 58.3 °F - 57.4 °F 97% 29.90 in 7.0 mi East 10.4 mph - 0.02 in   Overcast
1:15 PM 58.6 °F - 57.9 °F 97% 29.89 in 4.0 mi ESE 9.2 mph - N/A Rain Light Rain
1:35 PM 59.0 °F - 58.1 °F 97% 29.87 in 3.0 mi ESE 5.8 mph - 0.02 in Rain , Thunderstorm Rain
1:55 PM 59.2 °F - 58.6 °F 98% 29.86 in 1.0 mi SE 9.2 mph - 0.29 in Rain , Thunderstorm Heavy Thunderstorms and Rain
2:15 PM 59.9 °F - 59.4 °F 98% 29.86 in 7.0 mi ESE 8.1 mph - 0.03 in Rain Light Rain
2:35 PM 61.5 °F - 61.0 °F 98% 29.84 in 10.0 mi South 8.1 mph - 0.03 in Thunderstorm Unknown
2:55 PM 63.0 °F - 62.6 °F 99% 29.81 in 10.0 mi South 16.1 mph 21.9 mph 0.03 in   Overcast
3:15 PM 64.8 °F - 63.9 °F 97% 29.79 in 10.0 mi South 16.1 mph 21.9 mph N/A Rain Light Rain
3:35 PM 65.7 °F - 64.4 °F 96% 29.77 in 10.0 mi South 6.9 mph - 0.01 in Rain Light Rain
3:55 PM 67.3 °F - 64.4 °F 90% 29.78 in 10.0 mi SSW 19.6 mph 28.8 mph 0.01 in Rain Light Rain
4:15 PM 68.0 °F - 64.8 °F 89% 29.79 in 10.0 mi SW 9.2 mph - N/A   Overcast
4:35 PM 69.6 °F - 66.0 °F 88% 29.78 in 10.0 mi SSW 11.5 mph 17.3 mph N/A   Mostly Cloudy
4:55 PM 70.0 °F - 65.5 °F 86% 29.77 in 10.0 mi SSW 9.2 mph 21.9 mph N/A   Mostly Cloudy
5:15 PM 70.0 °F - 65.5 °F 86% 29.77 in 10.0 mi SSW 11.5 mph 18.4 mph N/A   Mostly Cloudy
5:35 PM 69.8 °F - 65.3 °F 86% 29.75 in 10.0 mi SSW 12.7 mph - N/A   Overcast
5:55 PM 69.8 °F - 64.9 °F 84% 29.75 in 10.0 mi SSW 8.1 mph - N/A   Overcast
6:15 PM 69.8 °F - 63.0 °F 79% 29.75 in 10.0 mi SW 15.0 mph 21.9 mph N/A   Overcast
6:35 PM 68.5 °F - 61.3 °F 78% 29.75 in 10.0 mi SW 9.2 mph 17.3 mph N/A   Mostly Cloudy
6:55 PM 68.0 °F - 61.2 °F 79% 29.74 in 10.0 mi SW 8.1 mph - N/A   Clear
7:15 PM 67.3 °F - 60.3 °F 78% 29.73 in 10.0 mi SW 6.9 mph - N/A   Clear
7:35 PM 66.2 °F - 60.4 °F 82% 29.74 in 10.0 mi West 6.9 mph - N/A   Clear
7:55 PM 65.5 °F - 59.9 °F 82% 29.75 in 10.0 mi West 5.8 mph - N/A   Scattered Clouds
8:15 PM 64.0 °F - 59.5 °F 85% 29.74 in 10.0 mi Calm Calm - N/A   Scattered Clouds
8:35 PM 63.5 °F - 59.4 °F 86% 29.72 in 10.0 mi WNW 3.5 mph - N/A   Clear
8:55 PM 62.4 °F - 59.4 °F 90% 29.73 in 10.0 mi Calm Calm - N/A   Scattered Clouds
9:15 PM 61.7 °F - 59.7 °F 93% 29.72 in 10.0 mi SSE 3.5 mph - N/A   Scattered Clouds
9:35 PM 61.9 °F - 59.9 °F 93% 29.73 in 10.0 mi Calm Calm - N/A   Scattered Clouds
9:55 PM 61.5 °F - 59.7 °F 94% 29.72 in 10.0 mi Calm Calm - N/A   Scattered Clouds
10:15 PM 62.8 °F - 60.1 °F 91% 29.70 in 10.0 mi SSE 6.9 mph - N/A   Scattered Clouds
10:35 PM 64.8 °F - 60.3 °F 85% 29.71 in 10.0 mi WSW 10.4 mph - N/A Rain Light Rain
10:55 PM 63.9 °F - 59.9 °F 87% 29.72 in 10.0 mi West 4.6 mph - N/A   Scattered Clouds
11:15 PM 63.5 °F - 59.9 °F 88% 29.71 in 10.0 mi West 4.6 mph - N/A   Scattered Clouds
11:35 PM 63.0 °F - 59.4 °F 88% 29.71 in 10.0 mi Calm Calm - N/A   Scattered Clouds
11:55 PM 62.6 °F - 60.4 °F 93% 29.70 in 10.0 mi South 5.8 mph - N/A   Clear